Regional Weather Roundup
Issued by NWS

Home | Current Version | Previous Version | Graphics & Text | Print | Product List | Glossary Off
Versions: 1 2 3 4 5 6 7 8 9 10 11 12 13 14 15 16 17 18 19 20 21 22 23 24 25 26 27 28 29 30 31 32 33 34 35 36 37 38 39 40 41 42 43 44 45 46 47 48 49 50

000
ASUS43 KTOP 180159
RWRKS

WEATHER ROUNDUP FOR KANSAS
NATIONAL WEATHER SERVICE GOODLAND KS
900 PM CDT FRI APR 17 2015

NOTE:  "FAIR" INDICATES FEW OR NO CLOUDS BELOW 12,000 FEET WITH NO
SIGNIFICANT WEATHER AND/OR OBSTRUCTIONS TO VISIBILITY.

KSZ001>006-013>018-027>032-041>047-180300-
NORTHWEST KANSAS

CITY           SKY/WX    TMP DP  RH WIND       PRES   REMARKS
GOODLAND       TSTM      51  48  89 N6        29.95S
HAYS           MOCLDY    64  50  59 E10       29.93S
HILL CITY      LGT RAIN  62  54  74 S6        29.95R
RUSSELL        CLOUDY    64  55  72 E8        29.93R
$$

KSZ061>065-074>080-084>089-180300-
SOUTHWEST KANSAS

CITY           SKY/WX    TMP DP  RH WIND       PRES   REMARKS
DODGE CITY     CLOUDY    58  53  84 SE9       29.93S
ELKHART          N/A    N/A N/A N/A MISG        N/A
GARDEN CITY    MOCLDY    58  45  62 SE10      29.89S
GREAT BEND     CLOUDY    64  57  77 SE9       29.92S
LIBERAL        PTCLDY    63  48  59 S9        29.92R
$$

KSZ066>073-081>083-090>101-180300-
SOUTHEAST KANSAS

CITY           SKY/WX    TMP DP  RH WIND       PRES   REMARKS
CHANUTE        CLOUDY    66  61  84 SE3       29.96R
COFFEYVILLE    CLOUDY    66  62  87 SE5       29.94R
HUTCHINSON     CLOUDY    65  56  72 SE6       29.94R
MEDICINE LODGE   N/A     64  58  80 SE5       29.94R
NEWTON         CLOUDY    64  55  72 CALM      29.98R
PARSONS        CLOUDY    67  64  90 CALM      29.97R
WICHITA INTL   CLOUDY    65  58  78 S3        29.94R
WICHITA JABRA  CLOUDY    65  57  75 S5        29.95R
WINFIELD       CLOUDY    66  60  81 MISG      29.96R
$$

KSZ007>012-019>026-033>040-048>060-102>105-180300-
NORTHEAST KANSAS

CITY           SKY/WX    TMP DP  RH WIND       PRES   REMARKS
CONCORDIA      PTCLDY    65  56  72 E6        29.96R
EMPORIA        CLOUDY    64  58  80 SE7       29.95R
LAWRENCE       CLOUDY    62  59  90 NE5       29.96S
MANHATTAN      CLOUDY    68  58  70 SE5       29.95R
OLATHE IND     MOCLDY    64  57  78 CALM      29.97S
OLATHE EXE     MOCLDY    69  59  70 CALM      29.96S
SALINA         MOCLDY    67  57  70 SE6       29.94R
TOPEKA BILLARD CLOUDY    65  57  75 NE3       29.95F
TOPEKA FORBES  CLOUDY    68  57  68 SE6       29.95F
$$



USA.gov is the U.S. government's official web portal to all federal, state and local government web resources and services.